Tracking 23583 objects as of 26-Jul-2021
HD Live streaming from Space Station
objects crossing your sky now

QUETZAL-1

Track QUETZAL-1 now!
10-day predictions
QUETZAL-1 is classified as:


NORAD ID: 45598
Int'l Code: 1998-067RL
Perigee: 389.7 km
Apogee: 393.1 km
Inclination: 51.6 °
Period: 92.2 minutes
Semi major axis: 6762 km
RCS: Unknown
Launch date: November 20, 1998
Source: (TBD)
Launch site: TYURATAM MISSILE AND SPACE COMPLEX (TTMTR)

Uplink (MHz):
Downlink (MHz): 437.200
Beacon (MHz):
Mode: 4800bps GMSK
Call sign:
Status: Inactive

aabbcc
Your satellite tracking list
Your tracking list is empty




NASA's NSSDC Master Catalog

Two Line Element Set (TLE):
1 45598U 98067RL  21206.80113486  .00025506  00000-0  30093-3 0  9999
2 45598  51.6395 134.5728 0002525 116.4077 243.7176 15.61172642 70543
Source of the keplerian elements: AFSPC